sat.trackr.live / text

‹ back to catalog

GEISAT PRECURSOR

NORAD 56934 · 2023-084C

PAYLOAD ACTIVE UNKNOWN

§ Identity

Operator
Country
SPN
Launch date
2023-06-12
Launch site
AFWTR
Launch vehicle
Mass (kg)
RCS (m²)

External: N2YO · Heavens-Above · Gunter

§ Orbital elements

Epoch: 2026-05-25T04:47:24.450720Z

Period
93.85 min
Inclination
97.6189°
Eccentricity
0.0006978
Mean motion
15.34287808 rev/d
Perigee alt
458.3 km
Apogee alt
467.8 km
Semi-major
6,841.2 km
B*
2.2890e-4
RAAN
285.4068°
Arg perigee
74.7440°
Mean anomaly
285.4574°
Rev number
16,400

§ Raw data

GEISAT PRECURSOR1 56934U 23084C   26145.19958855  .00007520  00000+0  22890-3 0  99992 56934  97.6189 285.4068 0006978  74.7440 285.4574 15.34287808164000

JSON: /api/v1/satellites/56934 · /tle

For live sub-satellite position, see the globe view (requires WebGL).

§ Visibility from observer

Set your observer location to see the next 7 days of passes ≥ 10°. The values pass through the URL so the page stays shareable.

No JS? Fill the form by hand. The geolocation button needs JavaScript.

§ Radio — SatNOGS DB

ModeDescriptionDownlinkUplink
FM Telemetry 401.400 MHz

1 transmitter · refreshed weekly from db.satnogs.org